CW2157 Weather Reports


time (UTC)temp
F
wind
direction
speed
knots
gust
knots
rain 1hr
in
rain 24hr
in
rain mn
in
humidity
%
barometer
mb
20260502220704 59 45 2.6 8.7 0.00 0.00 0.00 44 1010.0
20260502220204 59 47 4.3 10.4 0.00 0.00 0.00 42 1009.9
20260502215704 59 44 5.2 12.2 0.00 0.00 0.00 42 1010.0
20260502215204 59 30 4.3 8.7 0.00 0.00 0.00 46 1009.9
20260502214704 59 42 7.0 10.4 0.00 0.00 0.00 44 1009.8
20260502214204 59 50 4.3 8.7 0.00 0.00 0.00 44 1009.8
20260502213205 60 354 5.2 8.7 0.00 0.00 0.00 43 1009.9
20260502212704 60 17 2.6 8.7 0.00 0.00 0.00 46 1009.9
20260502212204 60 19 4.3 8.7 0.00 0.00 0.00 44 1009.9
20260502210704 59 32 5.2 10.4 0.00 0.00 0.00 44 1009.8
20260502205704 58 42 6.1 10.4 0.00 0.00 0.00 50 1009.8
20260502205204 58 36 1.7 7.0 0.00 0.00 0.00 46 1009.8
20260502204704 58 9 5.2 8.7 0.00 0.00 0.00 44 1009.8
20260502204204 59 357 3.5 10.4 0.00 0.00 0.00 44 1009.8
20260502203705 59 51 6.1 10.4 0.00 0.00 0.00 45 1009.8
20260502203205 59 31 2.6 7.8 0.00 0.00 0.00 41 1009.9
20260502202704 59 13 4.3 11.3 0.00 0.00 0.00 41 1009.9
20260502202204 59 12 3.5 7.8 0.00 0.00 0.00 43 1009.8
20260502201704 59 36 6.1 10.4 0.00 0.00 0.00 44 1009.8
20260502200704 60 53 3.5 8.7 0.00 0.00 0.00 44 1009.9
20260502200204 60 356 3.5 11.3 0.00 0.00 0.00 43 1009.9
20260502195704 59 29 5.2 8.7 0.00 0.00 0.00 44 1010.0
20260502194704 60 58 6.1 12.2 0.00 0.00 0.00 43 1010.1
20260502194204 60 61 6.1 12.2 0.00 0.00 0.00 43 1010.1
20260502193204 61 39 4.3 12.2 0.00 0.00 0.00 43 1010.3
20260502192205 62 35 6.1 10.4 0.00 0.00 0.00 44 1010.4
20260502191704 62 23 2.6 12.2 0.00 0.00 0.00 46 1010.5
20260502191204 61 312 5.2 10.4 0.00 0.00 0.00 43 1010.5
20260502190204 61 25 3.5 7.8 0.00 0.00 0.00 42 1010.6
20260502185704 61 349 2.6 10.4 0.00 0.00 0.00 48 1010.8
20260502185204 60 23 5.2 12.2 0.00 0.00 0.00 47 1010.8
20260502184704 60 323 4.3 10.4 0.00 0.00 0.00 45 1011.0
20260502184204 60 11 4.3 8.7 0.00 0.00 0.00 48 1011.1
20260502183704 59 343 2.6 11.3 0.00 0.00 0.00 48 1011.1
20260502183205 59 75 4.3 8.7 0.00 0.00 0.00 47 1011.3
20260502182204 59 15 1.7 7.8 0.00 0.00 0.00 48 1011.4
20260502181204 59 355 4.3 8.7 0.00 0.00 0.00 47 1011.5
20260502180705 60 9 7.8 11.3 0.00 0.00 0.00 49 1011.5
20260502180204 59 42 5.2 10.4 0.00 0.00 0.00 52 1011.5
20260502164204 56 346 4.3 7.8 0.00 0.00 0.00 55 1012.3
20260502163704 56 352 5.2 7.8 0.00 0.00 0.00 58 1012.3
20260502163204 55 22 4.3 8.7 0.00 0.00 0.00 56 1012.3
20260502162704 55 328 5.2 12.2 0.00 0.00 0.00 55 1012.3
20260502162204 55 358 3.5 7.0 0.00 0.00 0.00 58 1012.3
20260502161704 55 44 5.2 11.3 0.00 0.00 0.00 57 1012.3
20260502161204 55 5 5.2 11.3 0.00 0.00 0.00 56 1012.3
20260502160704 55 64 2.6 8.7 0.00 0.00 0.00 57 1012.4
20260502160204 55 5 4.3 10.4 0.00 0.00 0.00 54 1012.5
20260502152204 55 30 4.3 10.4 0.00 0.00 0.00 62 1013.0
20260502151704 55 5 5.2 8.7 0.00 0.00 0.00 63 1012.8
20260502151204 54 353 5.2 12.2 0.00 0.00 0.00 64 1012.7
20260502150704 54 351 7.8 12.2 0.00 0.00 0.00 63 1012.6
20260502150204 54 341 4.3 11.3 0.00 0.00 0.00 65 1012.4
20260502130704 53 34 6.1 11.3 0.00 0.00 0.00 63 1012.2
20260502123704 52 345 4.3 7.8 0.00 0.00 0.00 64 1012.3
20260502123204 52 355 3.5 7.0 0.00 0.00 0.00 64 1012.3
20260502122703 52 5 2.6 8.7 0.00 0.00 0.00 66 1012.2
20260502121204 52 353 3.5 10.4 0.00 0.00 0.00 65 1012.0
20260502120704 52 355 3.5 7.8 0.00 0.00 0.00 65 1012.0
20260502120203 52 352 5.2 10.4 0.00 0.00 0.00 64 1012.1
20260502115704 52 352 7.0 13.0 0.00 0.00 0.00 65 1012.2
20260502114704 53 328 3.5 8.7 0.00 0.00 0.00 65 1012.2
20260502113704 52 344 3.5 11.3 0.00 0.00 0.00 65 1012.1
20260502113204 52 0 4.3 7.8 0.00 0.00 0.00 65 1012.1
20260502112703 52 358 2.6 8.7 0.00 0.00 0.00 64 1012.2
20260502112204 52 298 2.6 7.8 0.00 0.00 0.00 63 1012.1
20260502111204 52 345 1.7 8.7 0.00 0.00 0.00 62 1012.0
20260502110704 53 322 5.2 10.4 0.00 0.00 0.00 61 1011.9
20260502110204 53 350 5.2 10.4 0.00 0.00 0.00 60 1011.9
20260502105704 53 351 4.3 11.3 0.00 0.00 0.00 61 1011.7
20260502105204 53 344 4.3 13.0 0.00 0.00 0.00 61 1011.7
20260502104704 53 257 2.6 7.0 0.00 0.00 0.00 65 1011.6
20260502103704 53 340 4.3 10.4 0.00 0.00 0.00 64 1011.8
20260502103204 53 345 1.7 8.7 0.00 0.00 0.00 65 1011.6
20260502102704 53 338 5.2 10.4 0.00 0.00 0.00 64 1011.6
20260502102204 53 322 4.3 13.0 0.00 0.00 0.00 64 1011.6
20260502101204 54 319 2.6 8.7 0.00 0.00 0.00 63 1011.5
20260502100704 54 21 4.3 10.4 0.00 0.00 0.00 63 1011.4
20260502090705 54 348 1.7 5.2 0.00 0.00 0.00 72 1011.1
20260502071205 54 328 0.0 2.6 0.00 0.00 0.00 80 1010.3
20260502070705 54 306 0.0 0.9 0.00 0.00 0.00 80 1010.3
20260502070206 55 295 0.0 1.7 0.00 0.00 0.00 80 1010.3
20260502065705 55 252 0.9 2.6 0.00 0.00 0.00 80 1010.3
20260502065206 55 196 0.0 1.7 0.00 0.00 0.00 80 1010.2
20260502064705 55 266 0.9 2.6 0.00 0.00 0.00 80 1010.3
20260502064205 55 272 1.7 5.2 0.00 0.00 0.00 80 1010.5
20260502063705 55 251 1.7 2.6 0.00 0.00 0.00 80 1010.5
20260502062705 55 229 5.2 7.8 0.00 0.00 0.00 80 1010.6
20260502062205 55 234 5.2 8.7 0.00 0.00 0.00 81 1010.5
20260502061706 55 239 6.1 8.7 0.00 0.00 0.00 82 1010.5
20260502061205 55 226 6.1 8.7 0.00 0.00 0.00 82 1010.6
20260502060706 55 226 6.1 7.8 0.00 0.00 0.00 81 1010.5
20260502060206 56 230 5.2 7.8 0.00 0.00 0.00 80 1010.8
20260502055706 56 220 6.1 7.8 0.00 0.00 0.00 80 1010.8
20260502055205 56 216 6.1 7.8 0.00 0.00 0.00 80 1010.9
20260502054705 56 193 5.2 8.7 0.00 0.00 0.00 79 1010.9
20260502054205 56 210 5.2 8.7 0.00 0.00 0.00 78 1010.9
20260502053205 56 223 6.1 7.8 0.00 0.00 0.00 77 1011.1
20260502052705 56 211 6.1 8.7 0.00 0.00 0.00 77 1011.0
20260502052205 56 222 6.1 11.3 0.00 0.00 0.00 77 1011.1
20260502051706 56 206 7.8 10.4 0.00 0.00 0.00 77 1011.0
20260502051206 56 202 6.1 10.4 0.00 0.00 0.00 76 1011.0
20260502050206 56 206 5.2 10.4 0.00 0.00 0.00 75 1010.9
20260502045705 56 190 5.2 8.7 0.00 0.00 0.00 75 1010.9
20260502044205 56 192 5.2 13.0 0.00 0.00 0.00 73 1010.8
20260502043705 56 188 6.1 12.2 0.00 0.00 0.00 73 1010.8
20260502042705 57 176 5.2 10.4 0.00 0.00 0.00 73 1010.8
20260502042205 57 193 6.1 14.8 0.00 0.00 0.00 72 1010.8
20260502041705 57 183 7.8 14.8 0.00 0.00 0.00 72 1010.7
20260502041205 57 172 5.2 8.7 0.00 0.00 0.00 71 1010.8
20260502040705 57 184 8.7 13.9 0.00 0.00 0.00 71 1010.8
20260502035705 57 192 6.1 11.3 0.00 0.00 0.00 72 1010.8
20260502034705 57 179 6.1 13.9 0.00 0.00 0.00 72 1010.8
20260502034206 57 175 6.1 14.8 0.00 0.00 0.00 70 1010.9
20260502033705 57 190 6.1 13.0 0.00 0.00 0.00 70 1010.8
20260502033205 57 175 7.8 13.9 0.00 0.00 0.00 70 1010.8
20260502032705 57 180 7.8 13.0 0.00 0.00 0.00 72 1010.7
20260502032206 57 193 7.0 12.2 0.00 0.00 0.00 71 1010.7
20260502031705 57 177 7.8 13.0 0.00 0.00 0.00 70 1010.6
20260502030706 57 201 8.7 17.4 0.00 0.00 0.00 70 1010.5
20260502030205 57 189 9.6 14.8 0.00 0.00 0.00 70 1010.5
20260502025706 57 188 10.4 17.4 0.00 0.00 0.00 70 1010.5
20260502025206 57 190 7.8 14.8 0.00 0.00 0.00 71 1010.6
20260502024705 57 181 8.7 17.4 0.00 0.00 0.00 70 1010.6
20260502024206 57 166 6.1 10.4 0.00 0.00 0.00 71 1010.6
20260502023706 57 169 7.8 14.8 0.00 0.00 0.00 72 1010.6
20260502023206 57 180 6.1 10.4 0.00 0.00 0.00 71 1010.6
20260502021706 58 187 6.1 14.8 0.00 0.00 0.00 71 1010.7
20260502021205 58 180 7.8 13.0 0.00 0.00 0.00 72 1010.7
20260502020705 58 172 9.6 13.9 0.00 0.00 0.00 70 1010.8
20260502020205 58 198 9.6 17.4 0.00 0.00 0.00 69 1010.8
20260502015705 58 196 9.6 14.8 0.00 0.00 0.00 67 1010.8
20260502015205 58 178 7.8 15.6 0.00 0.00 0.00 65 1010.8
20260502014705 58 186 7.0 13.0 0.00 0.00 0.00 64 1010.7
20260502014205 58 166 5.2 11.3 0.00 0.00 0.00 63 1010.6
20260502013205 58 175 7.8 17.4 0.00 0.00 0.00 62 1010.3
20260502012706 58 174 6.1 11.3 0.00 0.00 0.00 62 1010.1
20260502012205 58 186 6.1 13.9 0.00 0.00 0.00 61 1010.1
20260502011705 58 169 8.7 13.0 0.00 0.00 0.00 62 1009.9
20260502011206 58 169 6.1 11.3 0.00 0.00 0.00 61 1010.2
20260502010705 58 166 6.1 13.0 0.00 0.00 0.00 62 1010.3
20260502010206 58 155 5.2 10.4 0.00 0.00 0.00 59 1010.3
20260502005204 58 158 5.2 8.7 0.00 0.00 0.00 60 1010.2
20260502004705 58 152 4.3 10.4 0.00 0.00 0.00 58 1010.2
20260502003705 59 164 5.2 8.7 0.00 0.00 0.00 61 1010.2
20260502003204 59 164 6.1 8.7 0.00 0.00 0.00 58 1010.2
20260502002705 59 173 6.1 10.4 0.00 0.00 0.00 56 1010.3
20260502002206 59 170 6.1 10.4 0.00 0.00 0.00 56 1010.3
20260502001706 59 165 4.3 10.4 0.00 0.00 0.00 54 1010.3
20260502000706 60 177 5.2 10.4 0.00 0.00 0.00 51 1010.0
20260502000206 60 175 6.1 10.4 0.00 0.00 0.00 50 1009.8
20260501235705 60 194 6.1 10.4 0.00 0.00 0.00 49 1009.7
20260501234205 61 199 5.2 10.4 0.00 0.00 0.00 55 1009.4
20260501233206 61 171 6.1 10.4 0.00 0.00 0.00 55 1009.7
20260501232705 61 193 6.1 10.4 0.00 0.00 0.00 54 1009.8
20260501231705 61 204 7.0 10.4 0.00 0.00 0.00 54 1009.9
20260501231205 61 208 7.8 12.2 0.00 0.00 0.00 52 1009.8
20260501230206 62 202 7.8 12.2 0.00 0.00 0.00 48 1009.8
20260501225705 62 200 7.0 10.4 0.00 0.00 0.00 46 1009.7
20260501225205 62 184 7.0 10.4 0.00 0.00 0.00 43 1009.7
20260501224706 62 174 4.3 8.7 0.00 0.00 0.00 42 1009.8
20260501224205 62 181 5.2 13.0 0.00 0.00 0.00 42 1009.8
20260501223705 62 171 5.2 10.4 0.00 0.00 0.00 43 1009.8
20260501223205 62 155 4.3 10.4 0.00 0.00 0.00 42 1009.8
20260501222705 62 161 5.2 10.4 0.00 0.00 0.00 44 1009.7
20260501222205 62 185 6.1 10.4 0.00 0.00 0.00 44 1009.7
20260501221705 62 171 6.1 10.4 0.00 0.00 0.00 45 1009.8
20260501221204 62 167 4.3 10.4 0.00 0.00 0.00 46 1009.8